time_stamp(utc),avg(mph),gust(mph),direction(deg),12m_air_temp(f),sonic_u(cm/s),sonic_v(cm/s),sonic_w(cm/s),pressure,2m_air_temp(f),pyranometer(W/m^2)
"2018-11-26 00:02:07+00",4.5,4.5,,52.9,-183,64,1,1013.17,46.8,0
"2018-11-26 00:07:07+00",4.2,5.2,,52.9,-170,60,3,1013.16,47,0
"2018-11-26 00:12:07+00",3.7,4.7,,52.9,-145,57,2,1013.2,47.1,0
"2018-11-26 00:17:07+00",4.4,4.4,,52.9,-188,33,5,1013.24,47.3,0
"2018-11-26 00:22:07+00",5.3,5.3,,52.9,-229,18,0,1013.31,47.3,0
"2018-11-26 00:27:07+00",5.3,5.3,,52.7,-229,40,2,1013.39,47.2,0
"2018-11-26 00:32:07+00",4.9,4.9,,52.6,-210,42,3,1013.4,46.9,0
"2018-11-26 00:37:07+00",5.5,5.5,,52.7,-231,63,5,1013.42,46.9,0
"2018-11-26 00:42:07+00",4.1,4.1,,52.7,-168,55,1,1013.45,46.8,0
"2018-11-26 00:47:07+00",3.8,3.8,,52.8,-154,35,4,1013.53,47,0
"2018-11-26 00:52:07+00",3.9,3.9,,52.5,-166,24,5,1013.39,47.1,0
"2018-11-26 00:57:07+00",4.0,4.0,,52.2,-168,37,1,1013.4,47.2,0
"2018-11-26 01:02:07+00",5.0,6.0,,51.4,-205,-53,-3,1013.38,47.2,0
"2018-11-26 01:07:07+00",3.7,3.7,,51.2,-154,25,3,1013.34,47,0
"2018-11-26 01:12:07+00",4.7,4.7,,51,-202,1,2,1013.38,46.8,0
"2018-11-26 01:17:07+00",4.5,5.5,,50.5,-190,-17,-1,1013.36,46.6,0
"2018-11-26 01:22:07+00",7.2,8.2,,49.5,-230,-245,3,1013.49,46.3,0
"2018-11-26 01:27:07+00",7.9,8.9,,48.3,-252,-234,4,1013.58,46.1,0
"2018-11-26 01:32:07+00",5.7,5.7,,47.5,-203,-136,5,1013.54,46,0
"2018-11-26 01:37:07+00",4.4,4.4,,47.3,-163,-94,0,1013.57,46,0
"2018-11-26 01:42:07+00",4.4,4.4,,47.4,-176,-91,-4,1013.45,46,0
"2018-11-26 01:47:07+00",5.6,6.6,,47.6,-215,-64,0,1013.39,45.9,0
"2018-11-26 01:52:07+00",5.1,5.1,,48.1,-198,-53,-1,1013.28,45.9,0
"2018-11-26 01:57:07+00",3.7,4.7,,48.3,-154,-8,-3,1013.12,45.8,0
"2018-11-26 02:02:07+00",4.3,4.3,,49.1,-181,-1,1,1013.16,45.7,0
"2018-11-26 02:07:07+00",4.1,4.1,,49.5,-175,-3,1,1013.19,45.7,0
"2018-11-26 02:12:07+00",3.7,4.7,,49.4,-156,20,2,1013.19,45.5,0
"2018-11-26 02:17:07+00",4.0,4.0,,48.7,-163,45,0,1013.1,45.4,0
"2018-11-26 02:22:07+00",4.3,4.3,,48.6,-181,29,-2,1013.17,45.2,0
"2018-11-26 02:27:07+00",4.5,4.5,,49.3,-189,-7,-4,1013.23,45.1,0
"2018-11-26 02:32:07+00",3.9,3.9,,48.8,-158,55,6,1013.39,45.2,0
"2018-11-26 02:37:07+00",4.3,4.3,,48.1,-184,3,-2,1013.26,45.1,0
"2018-11-26 02:42:07+00",3.7,4.7,,47.9,-154,-20,0,1013.14,45,0
"2018-11-26 02:47:07+00",3.6,3.6,,47.5,-151,27,-2,1013.28,44.8,0
"2018-11-26 02:52:07+00",3.8,3.8,,47.7,-143,-83,0,1013.24,44.7,0
"2018-11-26 02:57:07+00",4.5,4.5,,48.4,-167,-97,2,1013.31,44.8,0
"2018-11-26 03:02:07+00",2.3,3.3,,48.1,-91,-18,-2,1013.23,44.7,0
"2018-11-26 03:07:07+00",0.0,0.0,,47.8,-44,-17,-2,1013.02,44.6,0
"2018-11-26 03:12:07+00",0.0,0.0,,48.1,-34,11,0,1012.77,44.7,0
"2018-11-26 03:17:07+00",0.0,0.0,,48.7,54,12,-3,1012.67,44.7,0
"2018-11-26 03:22:07+00",0.0,0.0,,49.1,70,1,-4,1012.65,44.6,0
"2018-11-26 03:27:07+00",0.0,0.0,,49.3,47,-15,-2,1012.48,44.7,0
"2018-11-26 03:32:07+00",0.0,0.0,,49.3,88,1,-3,1012.44,44.6,0
"2018-11-26 03:37:07+00",0.0,0.0,,49.7,65,-17,-2,1012.44,44.7,0
"2018-11-26 03:42:07+00",0.0,0.0,,50.1,67,-22,-1,1012.5,45.1,0
"2018-11-26 03:47:07+00",0.0,0.0,,50.4,58,-35,-1,1012.58,45.3,0
"2018-11-26 03:52:07+00",0.0,0.0,,50.2,64,-34,-1,1012.59,45.7,0
"2018-11-26 03:57:07+00",0.0,0.0,,50.1,89,-71,-3,1012.54,45.9,0
"2018-11-26 04:02:07+00",0.0,0.0,,49.8,114,-59,-1,1012.39,45.8,0
"2018-11-26 04:07:07+00",3.2,4.2,,49.5,129,-57,-1,1012.35,45.9,0
"2018-11-26 04:12:07+00",4.0,4.0,,49.3,161,-47,-2,1012.3,45.8,0
"2018-11-26 04:17:07+00",2.6,3.6,,49.3,106,-40,-2,1012.5,45.7,0
"2018-11-26 04:22:07+00",3.3,4.3,,49.6,116,-73,-2,1012.5,46,0
"2018-11-26 04:27:07+00",3.1,3.1,,49.5,101,-76,-1,1012.57,46.1,0
"2018-11-26 04:32:07+00",3.2,3.2,,49.5,89,-98,-5,1012.62,46.3,0
"2018-11-26 04:37:07+00",3.2,3.2,,50.3,16,-133,-1,1012.55,46.5,0
"2018-11-26 04:42:07+00",4.0,4.0,,50.6,-11,-163,14,1012.48,46.4,0
"2018-11-26 04:47:07+00",3.5,4.5,,50,-6,-148,12,1012.49,46.5,0
"2018-11-26 04:52:07+00",4.9,4.9,,49,-170,-118,6,1012.41,46.2,0
"2018-11-26 04:57:07+00",4.7,4.7,,47.7,-167,-107,6,1012.43,45.7,0
"2018-11-26 05:02:07+00",3.9,3.9,,47,-123,-103,-4,1012.25,45.3,0
"2018-11-26 05:07:07+00",4.3,4.3,,47.1,-135,-114,-3,1012.41,45,0
"2018-11-26 05:12:07+00",4.0,4.0,,46.8,-140,-91,1,1012.25,44.8,0
"2018-11-26 05:17:07+00",4.0,4.0,,46.9,-131,-100,-4,1011.95,44.6,0
"2018-11-26 05:22:07+00",3.7,4.7,,46.9,-158,-75,0,1011.94,44.4,0
"2018-11-26 05:27:07+00",3.2,4.2,,46.7,-125,-65,-1,1011.95,44.2,0
"2018-11-26 05:32:07+00",3.1,3.1,,45.9,-124,-45,1,1011.87,43.7,0
"2018-11-26 05:37:07+00",3.0,3.0,,45.7,-124,-12,2,1011.76,43.3,0
"2018-11-26 05:42:07+00",2.7,2.7,,45.5,-115,-4,4,1011.79,42.8,0
"2018-11-26 05:47:07+00",2.7,2.7,,45.1,-111,3,5,1011.77,42.6,0
"2018-11-26 05:52:07+00",3.9,3.9,,44.7,-165,34,8,1011.96,42.4,0
"2018-11-26 05:57:07+00",4.3,4.3,,44.3,-171,66,6,1011.92,42.4,0
"2018-11-26 06:02:07+00",4.5,4.5,,44.5,-188,54,6,1012.1,42.4,0
"2018-11-26 06:07:07+00",4.5,4.5,,44.3,-183,65,9,1012.23,42.4,0
"2018-11-26 06:12:07+00",4.1,4.1,,44.2,-171,-3,-2,1012.12,42.6,0
"2018-11-26 06:17:07+00",4.6,5.6,,44.5,-178,-50,-1,1012.17,42.6,0
"2018-11-26 06:22:07+00",4.5,5.5,,44.7,-190,-71,-1,1012.15,42.5,0
"2018-11-26 06:27:07+00",5.3,5.3,,44.7,-207,-62,-1,1012.23,42.3,0
"2018-11-26 06:32:07+00",4.7,4.7,,44.8,-186,-45,-3,1012.26,42.2,0
"2018-11-26 06:37:07+00",4.8,4.8,,44.9,-193,-43,-1,1012.29,42.1,0
"2018-11-26 06:42:07+00",4.4,4.4,,45.1,-188,18,2,1012.51,42.2,0
"2018-11-26 06:47:07+00",3.8,3.8,,45,-152,49,4,1012.51,42.4,0
"2018-11-26 06:52:07+00",4.0,5.0,,45,-163,31,0,1012.57,42.6,0
"2018-11-26 06:57:07+00",3.7,4.7,,45.1,-156,12,0,1012.61,42.8,0
"2018-11-26 07:02:07+00",3.3,4.3,,44.9,-137,34,5,1012.61,43,0
"2018-11-26 07:07:07+00",3.7,3.7,,44.8,-151,37,2,1012.55,43,0
"2018-11-26 07:12:07+00",3.1,3.1,,44.9,-127,33,3,1012.65,43.1,0
"2018-11-26 07:17:07+00",3.1,3.1,,45.1,-125,17,0,1012.61,43.2,0
"2018-11-26 07:22:07+00",2.8,2.8,,45.3,-108,39,-2,1012.61,43.2,0
"2018-11-26 07:27:07+00",2.6,2.6,,45.4,-108,11,-2,1012.65,43.2,0
"2018-11-26 07:32:07+00",0.7,1.7,,45.6,-28,-36,3,1012.16,43.2,0
"2018-11-26 07:37:07+00",1.9,2.9,,45.7,11,-85,1,1012.05,43.4,0
"2018-11-26 07:42:07+00",2.8,3.8,,45.4,100,-60,-1,1012.04,43.4,0
"2018-11-26 07:47:07+00",4.0,4.0,,45.3,132,-103,-8,1012.13,43.3,0
"2018-11-26 07:52:07+00",3.1,3.1,,45.5,61,-111,-6,1012,43.4,0
"2018-11-26 07:57:07+00",3.4,3.4,,45.9,60,-130,-5,1011.76,43.6,0
"2018-11-26 08:02:07+00",3.4,3.4,,46.1,85,-114,-7,1011.65,43.6,0
"2018-11-26 08:07:07+00",4.1,4.1,,46.2,118,-124,-7,1011.7,43.7,0
"2018-11-26 08:12:07+00",3.7,4.7,,46.5,80,-132,-5,1011.72,43.9,0
"2018-11-26 08:17:07+00",3.1,3.1,,46.7,31,-123,-3,1011.74,44.2,0
"2018-11-26 08:22:07+00",3.0,3.0,,46.8,54,-111,-5,1011.72,44.5,0
"2018-11-26 08:27:07+00",3.0,3.0,,47.1,28,-122,-2,1011.68,44.7,0
"2018-11-26 08:32:07+00",3.5,3.5,,47.3,124,-70,-4,1011.42,44.8,0
"2018-11-26 08:37:07+00",5.6,6.6,,47,237,43,13,1011.21,44.5,0
"2018-11-26 08:42:07+00",5.1,6.1,,46.9,222,6,15,1011.29,44.1,0
"2018-11-26 08:47:07+00",5.7,5.7,,47.2,246,14,11,1011.19,43.9,0
"2018-11-26 08:52:07+00",5.1,6.1,,47,215,40,15,1011.28,43.9,0
"2018-11-26 08:57:07+00",4.5,4.5,,46.6,187,48,8,1011.24,43.9,0
"2018-11-26 09:02:07+00",4.1,5.1,,47.3,173,-14,-1,1011.19,43.9,0
"2018-11-26 09:07:07+00",4.8,4.8,,47.6,211,12,5,1011.12,44,0
"2018-11-26 09:12:07+00",6.5,7.5,,46.8,280,100,15,1011.16,43.9,0
"2018-11-26 09:17:07+00",7.9,8.9,,47.1,348,18,25,1010.84,43.9,0
"2018-11-26 09:22:07+00",5.2,6.2,,47.2,221,-10,9,1011.01,44.1,0
"2018-11-26 09:27:07+00",5.7,5.7,,47.5,234,-67,12,1010.9,44.2,0
"2018-11-26 09:32:07+00",6.1,6.1,,48.1,231,-125,6,1010.83,44.6,0
"2018-11-26 09:37:07+00",6.5,6.5,,48.5,267,-91,6,1010.79,45,0
"2018-11-26 09:42:07+00",6.4,7.4,,48.6,245,-130,10,1010.64,45.2,0
"2018-11-26 09:47:07+00",7.6,7.6,,49,266,-194,2,1010.47,45.4,0
"2018-11-26 09:52:07+00",8.1,8.1,,49.2,322,-151,12,1010.28,45.9,0
"2018-11-26 09:57:07+00",7.7,8.7,,49,316,-113,8,1010.29,46.4,0
"2018-11-26 10:02:07+00",8.4,9.4,,49.2,344,-144,2,1010.08,47.1,0
"2018-11-26 10:07:07+00",8.5,9.5,,49.5,324,-192,4,1010.11,47.6,0
"2018-11-26 10:12:07+00",8.7,10.7,,49.8,278,-248,2,1010.14,47.9,0
"2018-11-26 10:17:07+00",9.7,10.7,,50.2,328,-266,3,1009.95,48.4,0
"2018-11-26 10:22:07+00",9.5,10.5,,50.3,290,-292,1,1009.95,48.6,0
"2018-11-26 10:27:07+00",10.2,12.2,,50.3,340,-299,3,1009.88,48.7,0
"2018-11-26 10:32:07+00",10.6,11.6,,50.4,342,-317,0,1009.69,48.7,0
"2018-11-26 10:37:07+00",10.8,11.8,,50.5,362,-298,6,1009.55,48.8,0
"2018-11-26 10:42:07+00",11.1,12.1,,50.5,326,-360,-5,1009.6,48.9,0
"2018-11-26 10:47:07+00",9.5,10.5,,50.5,230,-349,-3,1009.71,49,0
"2018-11-26 10:52:07+00",10.6,12.6,,50.6,258,-383,-3,1009.81,49.2,0
"2018-11-26 10:57:07+00",10.8,12.8,,50.6,301,-353,-5,1009.56,49.3,0
"2018-11-26 11:02:07+00",10.3,12.3,,50.6,258,-362,-9,1009.61,49.4,0
"2018-11-26 11:07:07+00",10.7,12.7,,50.7,269,-375,-9,1009.64,49.5,0
"2018-11-26 11:12:07+00",9.8,10.8,,50.7,222,-356,-2,1009.7,49.6,0
"2018-11-26 11:17:07+00",10.2,11.2,,50.8,228,-373,-4,1009.79,49.8,0
"2018-11-26 11:22:07+00",9.7,11.7,,50.8,176,-386,-9,1009.87,49.8,0
"2018-11-26 11:27:07+00",10.9,12.9,,50.9,142,-434,-4,1009.99,49.9,0
"2018-11-26 11:32:07+00",11.1,12.1,,50.9,124,-459,-3,1010,49.9,0
"2018-11-26 11:37:07+00",10.3,13.3,,50.8,-9,-426,-15,1010.41,50,0
"2018-11-26 11:42:07+00",9.6,12.6,,50.7,-23,-393,-2,1010.39,50,0
"2018-11-26 11:47:07+00",9.1,11.1,,50.6,-20,-388,-18,1010.5,50,0
"2018-11-26 11:52:07+00",9.5,12.5,,50.9,-17,-410,-16,1010.53,50.1,0
"2018-11-26 11:57:07+00",10.5,13.5,,50.9,60,-451,-19,1010.34,50.2,0
"2018-11-26 12:02:07+00",10.0,13.0,,50.9,67,-430,-11,1010.4,50.2,0
"2018-11-26 12:07:07+00",10.0,12.0,,51,81,-426,-12,1010.45,50.2,0
"2018-11-26 12:12:07+00",11.0,13.0,,51.3,153,-434,-6,1010.18,50.4,0
"2018-11-26 12:17:07+00",11.7,13.7,,51.4,198,-472,-6,1010.14,50.4,0
"2018-11-26 12:22:07+00",11.5,12.5,,51.5,197,-459,-1,1010.02,50.5,0
"2018-11-26 12:27:07+00",11.9,13.9,,51.6,224,-470,-14,1009.94,50.6,0
"2018-11-26 12:32:07+00",11.8,12.8,,51.6,231,-450,-1,1009.95,50.7,0.1
"2018-11-26 12:37:07+00",13.2,15.2,,51.7,283,-500,-11,1009.78,50.8,0
"2018-11-26 12:42:07+00",12.7,13.7,,51.7,257,-495,-3,1009.86,50.9,0.1
"2018-11-26 12:47:07+00",12.8,13.8,,51.9,227,-501,-10,1010,51,1.4
"2018-11-26 12:52:07+00",12.5,14.5,,52,226,-483,-16,1010,51.2,6.9
"2018-11-26 12:57:07+00",13.5,14.5,,52.1,265,-524,-15,1009.83,51.3,6.6
"2018-11-26 13:02:07+00",11.3,13.3,,52,218,-452,-10,1009.91,51.3,16.6
"2018-11-26 13:07:07+00",13.3,15.3,,52,296,-496,-5,1009.82,51.3,7.9
"2018-11-26 13:12:07+00",12.9,15.9,,52,262,-493,-9,1009.87,51.2,12.8
"2018-11-26 13:17:07+00",12.2,14.2,,52,230,-474,-4,1010.05,51.3,14.2
"2018-11-26 13:22:07+00",12.7,14.7,,52.1,278,-478,-7,1009.87,51.4,8.1
"2018-11-26 13:27:07+00",14.4,16.4,,52.2,292,-555,-17,1009.89,51.4,1
"2018-11-26 13:32:07+00",13.5,14.5,,52.2,246,-533,-12,1009.92,51.5,0
"2018-11-26 13:37:07+00",14.1,17.1,,52.1,355,-501,-4,1009.49,51.5,0
"2018-11-26 13:42:07+00",13.9,16.9,,52.2,357,-486,-11,1009.43,51.5,0.3
"2018-11-26 13:47:07+00",13.8,15.8,,52.2,329,-494,-11,1009.6,51.6,4.3
"2018-11-26 13:52:07+00",13.5,15.5,,52.3,327,-485,-1,1009.56,51.6,7.7
"2018-11-26 13:57:07+00",14.2,16.2,,52.3,315,-529,-4,1009.56,51.7,17.4
"2018-11-26 14:02:07+00",14.0,16.0,,52.3,288,-533,-1,1009.64,51.8,23
"2018-11-26 14:07:07+00",16.1,18.1,,52.4,330,-615,-7,1009.54,51.8,18.1
"2018-11-26 14:12:07+00",16.4,18.4,,52.5,309,-643,-14,1009.59,51.8,11.7
"2018-11-26 14:17:07+00",15.0,17.0,,52.6,301,-578,3,1009.52,51.9,17.3
"2018-11-26 14:22:07+00",15.0,16.0,,52.6,296,-582,-3,1009.4,51.9,37.6
"2018-11-26 14:27:07+00",15.5,17.5,,52.6,342,-583,-8,1009.12,52,38.6
"2018-11-26 14:32:07+00",15.3,17.3,,52.6,326,-577,2,1009.12,51.9,14.5
"2018-11-26 14:37:07+00",17.2,19.2,,52.6,439,-617,-16,1008.87,51.9,16.3
"2018-11-26 14:42:07+00",19.2,21.2,,52.6,591,-611,-12,1008.43,51.9,34.3
"2018-11-26 14:47:07+00",19.3,22.3,,52.5,657,-541,5,1007.86,51.9,24
"2018-11-26 14:52:07+00",20.1,22.1,,52.3,764,-445,6,1007.36,51.8,30.5
"2018-11-26 14:57:07+00",19.4,21.4,,52.5,581,-622,-1,1007.76,51.9,93.2
"2018-11-26 15:02:07+00",19.0,21.0,,52.6,495,-679,-3,1008.06,52.4,145.4
"2018-11-26 15:07:07+00",19.6,21.6,,52.9,504,-682,-11,1007.99,52.6,266.4
"2018-11-26 15:12:07+00",18.2,20.2,,52.9,482,-632,-4,1007.95,52.8,164.4
"2018-11-26 15:17:07+00",18.3,21.3,,53,516,-610,1,1007.91,53,142.6
"2018-11-26 15:22:07+00",17.3,19.3,,52.9,430,-615,-7,1007.95,52.8,121.8
"2018-11-26 15:27:07+00",18.5,20.5,,53,498,-637,-17,1007.72,52.8,120.4
"2018-11-26 15:32:07+00",17.2,19.2,,52.8,457,-598,-10,1007.68,52.6,40.2
"2018-11-26 15:37:07+00",18.8,19.8,,52.8,574,-595,-8,1007.28,52.5,30.5
"2018-11-26 15:42:07+00",17.4,19.4,,52.7,571,-518,-6,1006.96,52.4,24.4
"2018-11-26 15:47:07+00",17.8,18.8,,52.6,559,-541,3,1006.82,52.3,32.1
"2018-11-26 15:52:07+00",18.9,20.9,,52.6,628,-546,4,1006.51,52.3,21.5
"2018-11-26 15:57:07+00",19.4,21.4,,52.7,560,-635,-6,1006.53,52.2,29.6
"2018-11-26 16:02:07+00",18.6,20.6,,52.7,633,-509,2,1006.01,52.2,42.8
"2018-11-26 16:07:07+00",21.3,23.3,,52.7,742,-578,6,1005.46,52.2,20.2
"2018-11-26 16:12:07+00",21.7,23.7,,52.8,767,-580,15,1005.36,52.3,54
"2018-11-26 16:17:07+00",22.6,24.6,,52.7,818,-600,6,1005,52.4,59.9
"2018-11-26 16:22:07+00",23.6,25.6,,52.9,813,-660,5,1005.13,52.4,49.9
"2018-11-26 16:27:07+00",22.6,24.6,,52.8,782,-609,8,1004.89,52.4,57.7
"2018-11-26 16:32:07+00",20.7,22.7,,52.8,682,-615,-1,1005.16,52.5,58.7
"2018-11-26 16:37:07+00",21.3,24.3,,52.7,698,-624,5,1004.99,52.4,36.1
"2018-11-26 16:42:07+00",22.4,24.4,,52.7,773,-598,-1,1004.42,52.4,45.4
"2018-11-26 16:47:07+00",22.9,25.9,,52.7,787,-644,13,1004.07,52.4,72
"2018-11-26 16:52:07+00",26.8,30.8,,52.7,963,-687,0,1003.31,52.5,91.5
"2018-11-26 16:57:07+00",25.0,29.0,,52.6,894,-657,-6,1003.35,52.5,83.1
"2018-11-26 17:02:07+00",25.7,28.7,,52.7,851,-754,-9,1003.55,52.4,17.2
"2018-11-26 17:07:07+00",25.2,28.2,,52.7,812,-749,12,1003.52,52.4,23.4
"2018-11-26 17:12:07+00",24.5,29.5,,52.8,830,-693,22,1003.57,52.4,10.9
"2018-11-26 17:17:07+00",26.9,30.9,,52.8,921,-742,-4,1003.13,52.3,2.9
"2018-11-26 17:22:07+00",25.6,28.6,,52.6,912,-673,18,1002.68,52.1,26.1
"2018-11-26 17:27:07+00",26.6,29.6,,52.5,982,-655,12,1002.29,51.8,30.4
"2018-11-26 17:32:07+00",27.8,30.8,,52.5,1050,-640,9,1001.75,51.7,52.8
"2018-11-26 17:37:07+00",27.2,30.2,,52.3,934,-746,14,1001.97,51.6,0.9
"2018-11-26 17:42:07+00",24.2,28.2,,52.3,351,-597,332,1002.11,51.5,0
"2018-11-26 17:47:07+00",25.7,28.7,,52.2,1259,796,1053,1002.16,51.4,0.5
"2018-11-26 17:52:07+00",23.1,27.1,,52.2,1549,894,905,1001.52,51.4,10.6
"2018-11-26 17:57:07+00",24.9,27.9,,52.1,878,105,631,1001.26,51.3,0.1
"2018-11-26 18:02:07+00",26.4,32.4,,52.2,951,-232,314,1000.95,51.3,3.1
"2018-11-26 18:07:07+00",27.1,29.1,,51.9,-418,-62,1147,1000.58,51.2,15.2
"2018-11-26 18:12:07+00",24.8,27.8,,51.6,906,-464,118,1000.18,51,0
"2018-11-26 18:17:07+00",25.3,29.3,,51.7,954,-434,128,1000.2,50.9,0
"2018-11-26 18:22:07+00",29.6,34.6,,51.5,893,-491,182,998.82,50.9,5.1
"2018-11-26 18:27:07+00",29.3,34.3,,50.8,1209,-448,26,998.71,50.8,0
"2018-11-26 18:32:07+00",24.5,28.5,,50.8,741,-457,179,999.23,50.7,0
"2018-11-26 18:37:07+00",26.5,30.5,,51.3,554,-485,287,999.85,50.7,0
"2018-11-26 18:42:07+00",29.0,32.0,,51.3,1024,-486,95,999.26,50.7,0
"2018-11-26 18:47:07+00",28.7,31.7,,51.2,797,-562,191,999.24,50.6,0
"2018-11-26 18:52:07+00",29.9,34.9,,51.2,546,-589,335,999.24,50.6,0
"2018-11-26 18:57:07+00",26.8,30.8,,51.1,1017,-457,21,998.91,50.5,0
"2018-11-26 19:02:07+00",25.9,31.9,,51.1,821,-418,215,998.8,50.4,0
"2018-11-26 19:07:07+00",23.7,27.7,,51,901,-439,44,998.59,50.4,0
"2018-11-26 19:12:07+00",26.5,29.5,,51.1,1056,-488,24,998.31,50.5,0
"2018-11-26 19:17:07+00",28.4,34.4,,51.2,631,-326,475,998.2,50.6,0
"2018-11-26 19:22:07+00",29.8,33.8,,51.4,375,-604,425,997.71,50.7,0
"2018-11-26 19:27:07+00",29.6,34.6,,51.4,346,-516,500,997.57,50.8,0
"2018-11-26 19:32:07+00",32.8,38.8,,51.3,226,-543,687,997.43,50.8,0
"2018-11-26 19:37:07+00",28.2,33.2,,51.3,754,-374,411,997.08,50.8,0
"2018-11-26 19:42:07+00",28.1,32.1,,51.5,823,-287,390,997.24,50.9,0
"2018-11-26 19:47:07+00",18.4,22.4,,51.6,621,-429,124,997.29,51,0
"2018-11-26 19:52:07+00",27.6,33.6,,51.7,662,-762,195,996.87,51,0
"2018-11-26 19:57:07+00",26.8,32.8,,51.8,792,-579,245,996.82,51.2,0
"2018-11-26 20:02:07+00",25.8,31.8,,52,1078,-111,426,996.78,51.4,0
"2018-11-26 20:07:07+00",31.0,35.0,,52.1,880,-634,374,996.38,51.5,0
"2018-11-26 20:12:07+00",26.1,30.1,,52.1,959,-408,311,996.29,51.5,0
"2018-11-26 20:17:07+00",27.5,33.5,,52.6,1000,-416,281,996.09,51.7,0
"2018-11-26 20:22:07+00",30.2,37.2,,52.5,770,-692,269,995.42,51.8,0
"2018-11-26 20:27:07+00",26.9,30.9,,52.5,962,-31,681,995.92,51.9,0
"2018-11-26 20:32:07+00",29.3,34.3,,52.7,499,-718,431,995.82,52,0
"2018-11-26 20:37:07+00",32.2,39.2,,52.9,799,-506,574,995.81,52.3,0
"2018-11-26 20:42:07+00",30.6,39.6,,53.4,809,-889,193,995.92,52.6,0
"2018-11-26 20:47:07+00",30.3,36.3,,53.2,1717,-303,193,996.06,52.6,0
"2018-11-26 20:52:07+00",24.2,30.2,,53,684,-540,238,996.16,52.6,0
"2018-11-26 20:57:07+00",21.3,28.3,,53,-212,-859,71,996.59,52.7,0
"2018-11-26 21:02:07+00",18.9,23.9,,53.7,107,-769,12,996.37,53.1,0
"2018-11-26 21:07:07+00",26.4,30.4,,53.8,1100,-162,424,996.31,53.2,0
"2018-11-26 21:12:07+00",35.5,39.5,,54.8,1468,-1239,-307,995.63,53.6,0
"2018-11-26 21:17:07+00",30.4,38.4,,55,1601,-433,48,995.72,54,0
"2018-11-26 21:22:07+00",19.6,24.6,,54.6,131,-623,135,996.05,53.9,0
"2018-11-26 21:27:07+00",17.7,19.7,,54,156,-746,-16,996,53.6,0
"2018-11-26 21:32:07+00",16.4,20.4,,53.5,101,-688,-19,995.99,53.3,0
"2018-11-26 21:37:07+00",16.7,20.7,,53.8,-4,-685,6,995.74,53.4,0
"2018-11-26 21:42:07+00",14.4,19.4,,54,-18,-599,-3,995.72,53.7,0
"2018-11-26 21:47:07+00",14.6,20.6,,54.2,-46,-596,11,995.64,53.8,0
"2018-11-26 21:52:07+00",12.9,14.9,,53.8,-381,-432,20,995.81,53.4,0
"2018-11-26 21:57:07+00",16.6,18.6,,54.2,-468,-555,0,995.66,53.4,0
"2018-11-26 22:02:07+00",15.9,18.9,,54.5,-165,-646,0,995.63,53.9,0
"2018-11-26 22:07:07+00",16.6,18.6,,55,-399,-607,8,995.61,54.2,0
"2018-11-26 22:12:07+00",15.5,18.5,,54.8,-418,-551,7,995.56,54,0
"2018-11-26 22:17:07+00",13.3,15.3,,54.9,-393,-443,10,995.46,54,0
"2018-11-26 22:22:07+00",11.6,13.6,,54.8,-317,-402,9,995.34,53.9,0
"2018-11-26 22:27:07+00",12.8,14.8,,54.6,-379,-423,5,995.42,53.7,0
"2018-11-26 22:32:07+00",12.5,13.5,,54.1,-400,-378,12,995.41,53.4,0
"2018-11-26 22:37:07+00",10.9,12.9,,53.7,-360,-304,4,995.27,53.1,0
"2018-11-26 22:42:07+00",11.0,12.0,,53.3,-363,-299,11,995.23,52.7,0
"2018-11-26 22:47:07+00",10.2,11.2,,53.1,-417,-216,8,995.17,52.6,0
"2018-11-26 22:52:07+00",12.1,15.1,,53.3,-505,-167,22,994.94,52.4,0
"2018-11-26 22:57:07+00",14.9,16.9,,53.6,-616,-158,42,995.06,52.4,0
"2018-11-26 23:02:07+00",15.4,19.4,,54.1,-643,-194,33,995.15,52.6,0
"2018-11-26 23:07:07+00",16.5,18.5,,54.4,-681,-154,20,995,52.8,0
"2018-11-26 23:12:07+00",14.5,18.5,,54.1,-627,-223,34,994.99,52.6,0
"2018-11-26 23:17:07+00",15.9,17.9,,54.3,-651,-171,29,995.06,52.7,0
"2018-11-26 23:22:07+00",16.0,20.0,,54.1,-662,-144,28,995,52.5,0
"2018-11-26 23:27:07+00",13.2,15.2,,53.9,-544,-127,19,994.99,52.4,0
"2018-11-26 23:32:07+00",12.8,13.8,,53.5,-526,-115,16,995.03,52.2,0
"2018-11-26 23:37:07+00",14.0,18.0,,53.2,-600,-111,5,995.09,51.9,0
"2018-11-26 23:42:07+00",15.2,17.2,,53.5,-656,-130,46,995.12,51.9,0
"2018-11-26 23:47:07+00",15.5,17.5,,53.4,-658,-106,21,995.22,51.9,0
"2018-11-26 23:52:07+00",17.7,19.7,,53.4,-750,-157,6,995.21,51.9,0
"2018-11-26 23:57:07+00",18.5,20.5,,53.7,-786,-127,36,995.2,52,0
